This is the latest recevied weather packets stored in our database for station/object N8WJW. If no packets are shown the sender has not sent any weather packets the latest 10 day(s).
| Time | Temp. | Humidity | Pressure | Rain* | Wind** | Luminosity | Snow |
|---|---|---|---|---|---|---|---|
| 1777981724 | 16.67° C | 72% | 1006.6 hPa | 0 mm | - | 26 W/m² | - |
| 1777981420 | 16.67° C | 70% | 1006.7 hPa | 0 mm | - | 21 W/m² | - |
| 1777981116 | 17.22° C | 68% | 1006.5 hPa | 0 mm | - | 22 W/m² | - |
| 1777980813 | 17.22° C | 69% | 1006.5 hPa | 0 mm | - | 10 W/m² | - |
| 1777980509 | 17.22° C | 67% | 1006.5 hPa | 0 mm | - | 9 W/m² | - |
| 1777980206 | 17.22° C | 69% | 1006.4 hPa | 0 mm | - | 19 W/m² | - |
| 1777979902 | 17.22° C | 70% | 1006.4 hPa | 0 mm | - | 25 W/m² | - |
| 1777979598 | 17.22° C | 69% | 1006.3 hPa | 0 mm | - | 24 W/m² | - |
| 1777979294 | 17.78° C | 68% | 1006.2 hPa | 0 mm | - | 16 W/m² | - |
| 1777978991 | 17.78° C | 68% | 1006.1 hPa | 0 mm | - | 18 W/m² | - |
| 1777978688 | 17.78° C | 68% | 1006.1 hPa | 0 mm | - | 16 W/m² | - |
| 1777978384 | 17.78° C | 68% | 1006 hPa | 0 mm | - | 13 W/m² | - |
| 1777978080 | 17.78° C | 67% | 1006.1 hPa | 0 mm | - | 9 W/m² | - |
| 1777977778 | 17.78° C | 67% | 1006 hPa | 0 mm | - | 5 W/m² | - |
| 1777977474 | 17.78° C | 68% | 1005.8 hPa | 0 mm | - | 5 W/m² | - |
| 1777977172 | 17.78° C | 67% | 1005.7 hPa | 0 mm | - | 4 W/m² | - |
| 1777976869 | 17.78° C | 67% | 1005.7 hPa | 0 mm | - | 3 W/m² | - |
| 1777976567 | 17.78° C | 67% | 1005.5 hPa | 0 mm | - | 2 W/m² | - |
| 1777976266 | 17.78° C | 66% | 1005.5 hPa | 0 mm | - | 1 W/m² | - |
| 1777975961 | 17.78° C | 67% | 1005.3 hPa | 0 mm | - | 1 W/m² | - |
| 1777975658 | 17.78° C | 67% | 1005.4 hPa | 0 mm | - | 0 W/m² | - |
| 1777975355 | 17.78° C | 68% | 1005.2 hPa | 0 mm | - | 0 W/m² | - |
| 1777975050 | 17.78° C | 69% | 1005.2 hPa | 0 mm | - | 0 W/m² | - |
| 1777974748 | 17.78° C | 67% | 1005.2 hPa | 0 mm | - | 0 W/m² | - |
| 1777974443 | 17.78° C | 68% | 1005.2 hPa | 0 mm | - | 0 W/m² | - |
* Rain latest hour (hover to see other rain measurements)
** Current wind speed in m/s (hover to see current wind gust speed)